Weather History for West Palm Beach, FL

Change the Weather History Date:

Sunday, September 22, 2013

  Actual Average Record
Temperature  
Mean Temperature 82 °F 82 °F  
Max Temperature 89 °F 88 °F 94 °F (1942)
Min Temperature 75 °F 75 °F 61 °F (1897)
Degree Days  
Heating Degree Days 0 0  
Month to date heating degree days 0 0  
Since 1 July heating degree days 0 0  
Cooling Degree Days 17 16  
Month to date cooling degree days 369 373  
Year to date cooling degree days 3240 3079  
Growing Degree Days 32 (Base 50)    
Moisture  
Dew Point 74 °F    
Average Humidity 76    
Maximum Humidity 91    
Minimum Humidity 61    
Precipitation  
Precipitation 0.00 in 0.27 in 4.43 in (1948)
Month to date precipitation 6.93 6.26  
Year to date precipitation 54.55 46.98  
Snow  
Snow 0.00 in - - ()
Month to date snowfall 0.0  
Since 1 July snowfall 0.0  
Since 1 September snowfall 0.0  
Snow Depth 0.00 in    
Sea Level Pressure  
Sea Level Pressure 29.81 in    
Wind  
Wind Speed 6 mph (South)    
Max Wind Speed 15 mph    
Max Gust Speed 24 mph    
Visibility 10 miles    
Events      
T = Trace of Precipitation, MM = Missing Value Source: NWS Daily Summary

Daily Weather History Graph

Daily Weather History Graph

Search for Another Location

Airport:

Trip Planner

Search our weather history database for the weather conditions in past years. The results will help you decide how hot, cold, wet, or windy it might be!

Date:

Astronomy

Sep. 22, 2013 Rise Set
Actual Time 7:09 AM EDT 7:16 PM EDT
Civil Twilight 6:45 AM EDT 7:39 PM EDT
Nautical Twilight 6:18 AM EDT 8:06 PM EDT
Astronomical Twilight 5:51 AM EDT 8:33 PM EDT
Moon 9:28 PM EDT (9/22) 10:06 AM EDT (9/22)
Length of Visible Light 12h 53m
Length of Day
12h 07m
Waning Gibbous, 89% of the Moon is Illuminated
Sep 22
Waning Gibbous
Sep 26
Last Quarter
Oct 4
New
Oct 11
First Quarter
Oct 18
Full

Hourly Weather History & Observations

Time (EDT) Temp. Heat Index Dew Point Humidity Pressure Visibility Wind Dir Wind Speed Gust Speed Precip Events Conditions
12:53 AM 80.2 °F 83.9 °F 71.4 °F 74% 29.82 in 10.0 mi South 3.5 mph - N/A   Partly Cloudy
1:53 AM 79.0 °F - 75.0 °F 88% 29.81 in 10.0 mi SSE 4.6 mph - N/A   Scattered Clouds
2:53 AM 77.9 °F - 72.3 °F 83% 29.80 in 10.0 mi Calm Calm - N/A   Scattered Clouds
3:53 AM 77.4 °F - 72.3 °F 84% 29.79 in 10.0 mi Calm Calm - N/A   Scattered Clouds
4:53 AM 77.4 °F - 72.7 °F 85% 29.78 in 10.0 mi Calm Calm - N/A   Scattered Clouds
5:53 AM 77.5 °F - 72.7 °F 85% 29.79 in 10.0 mi Calm Calm - N/A   Scattered Clouds
6:53 AM 76.8 °F - 72.3 °F 86% 29.80 in 10.0 mi SSW 3.5 mph - N/A   Mostly Cloudy
7:53 AM 77.4 °F - 73.6 °F 88% 29.81 in 10.0 mi SSW 4.6 mph - N/A   Mostly Cloudy
8:53 AM 81.0 °F 86.3 °F 74.3 °F 80% 29.83 in 10.0 mi SSW 9.2 mph - N/A   Mostly Cloudy
9:53 AM 83.3 °F 89.9 °F 73.9 °F 73% 29.83 in 10.0 mi South 10.4 mph - N/A   Mostly Cloudy
10:43 AM 86.0 °F 95.1 °F 75.2 °F 70% 29.84 in 10.0 mi SSW 11.5 mph - N/A   Mostly Cloudy
10:53 AM 85.6 °F 93.8 °F 74.5 °F 69% 29.84 in 10.0 mi South 12.7 mph - N/A   Mostly Cloudy
11:53 AM 86.7 °F 95.0 °F 73.9 °F 66% 29.84 in 10.0 mi SW 10.4 mph 17.3 mph N/A   Mostly Cloudy
12:53 PM 86.7 °F 95.9 °F 75.0 °F 68% 29.82 in 10.0 mi South 8.1 mph - N/A   Mostly Cloudy
1:28 PM 84.2 °F 92.3 °F 75.2 °F 74% 29.81 in 10.0 mi SE 10.4 mph - N/A   Mostly Cloudy
1:53 PM 86.5 °F 96.4 °F 75.9 °F 70% 29.81 in 10.0 mi SSE 10.4 mph - N/A   Mostly Cloudy
2:53 PM 87.4 °F 96.7 °F 75.0 °F 66% 29.79 in 10.0 mi SSE 9.2 mph - N/A   Mostly Cloudy
3:53 PM 88.0 °F 97.5 °F 75.0 °F 65% 29.77 in 10.0 mi SSE 10.4 mph - N/A   Mostly Cloudy
4:53 PM 89.1 °F 98.5 °F 74.5 °F 62% 29.76 in 10.0 mi SE 11.5 mph - N/A   Mostly Cloudy
5:53 PM 86.0 °F 94.2 °F 74.5 °F 68% 29.77 in 10.0 mi SE 8.1 mph - N/A   Mostly Cloudy
6:53 PM 86.0 °F 94.6 °F 74.7 °F 69% 29.79 in 10.0 mi SSE 5.8 mph - N/A   Mostly Cloudy
7:53 PM 86.0 °F 92.6 °F 72.3 °F 64% 29.81 in 10.0 mi WSW 4.6 mph - N/A   Mostly Cloudy
8:53 PM 84.0 °F 89.0 °F 71.2 °F 65% 29.83 in 10.0 mi Calm Calm - N/A   Mostly Cloudy
9:53 PM 84.0 °F 90.2 °F 72.7 °F 69% 29.85 in 10.0 mi SSW 4.6 mph - N/A   Mostly Cloudy
10:53 PM 82.9 °F 88.3 °F 72.3 °F 70% 29.86 in 10.0 mi SSW 5.8 mph - N/A   Mostly Cloudy
11:53 PM 81.5 °F 86.9 °F 73.6 °F 77% 29.87 in 10.0 mi SW 5.8 mph - N/A   Mostly Cloudy